Content
SEND FEEDBACK

Daily
Averages
Monthly
Summary
United States of America

HOFFMAN FOREST, NORTH CAROLINA


Home > North America > United States > North Carolina
Elevation: 43 feet     Latitude: 34 50N     Longitude: 077 18W

WEATHER
 
SELECT A DAY
Number of Records: 192,166;   Date Range: 1/1/95 - 12/23/14
 
SHARE

PRINT THIS DATA

[ ← Previous Day ]
WEATHER ALMANAC - JANUARY 31, 2013
[ Next Day → ]
[ °C ]   °F
Weather ElementAverageHighLow
Temperature53.6 °F69.1 °F (1:56 am)39.9 °F (10:56 pm)
Dewpoint38.8 °F62.6 °F (2:12 am)19.9 °F (4:56 pm)
Humidity60.8 %88 % (2:12 am)27 % (4:56 pm)
Barometer29.79 in30.09 in (10:56 pm)29.53 in (1:56 am)
Wind Speed17.5 mph35.7 mph (2:12 am)
Wind Gust43.7 mph (2:14 am)
Weather ElementAverage
Visibility8.6 mi
Wind DirectionWSW (252.5 °)

Weather ElementTotal
Precipitation1.50 in
Heating Degree Days10.5 (Base 65)
Growing Degree Days4.5 (Base 50)
Averaged from 32 records on January 31, 2013
WEATHER CONDITIONS BREAKOUT
WIND DIRECTION BREAKOUT
WEATHER BY HOUR - JANUARY 31, 2013
[ °C ]   °F
Local TimeTemperatureDewpointHumidityBarometerVisibilityWind DirectionWind SpeedGust SpeedPrecipitationEventsConditions
1:56 AM69.1 °F62.1 °F78 %29.53 in7.0 miSouth (190°)27.6 mph38.0 mph0.00 inOvercast
2:12 AM66.2 °F62.6 °F88 %29.58 in1.5 miWest (270°)35.7 mph42.6 mph0.14 inRainHeavy Rain
2:14 AM62.6 °F59.0 °F88 %29.59 in0.8 miWest (260°)33.4 mph43.7 mph0.25 inRainHeavy Rain
2:23 AM59.0 °F55.4 °F88 %29.59 in1.5 miWest (260°)23.0 mph42.6 mph0.27 inRainLight Rain
2:25 AM60.8 °F55.4 °F82 %29.59 in3.0 miWest (260°)19.6 mph39.1 mph0.27 inRainLight Rain
2:35 AM59.0 °F55.4 °F88 %29.60 in7.0 miWSW (250°)19.6 mph28.8 mph0.27 inRainLight Rain
2:56 AM59.0 °F55.0 °F87 %29.60 in4.0 miWSW (240°)18.4 mph32.2 mph0.29 inRainLight Rain
3:25 AM59.0 °F53.6 °F82 %29.60 in10.0 miWSW (250°)23.0 mph33.4 mph0.00 inRainLight Rain
3:56 AM57.0 °F52.0 °F83 %29.61 in9.0 miSW (230°)18.4 mph29.9 mph0.01 inRainLight Rain
4:30 AM55.4 °F51.8 °F88 %29.63 in10.0 miWSW (250°)15.0 mph25.3 mph0.00 inOvercast
4:56 AM55.0 °F48.9 °F80 %29.65 in10.0 miWSW (250°)19.6 mph27.6 mph0.00 inMostly Cloudy
5:10 AM53.6 °F46.4 °F77 %29.65 in10.0 miWSW (240°)17.3 mph27.6 mphMostly Cloudy
5:56 AM52.0 °F44.1 °F74 %29.69 in10.0 miWSW (240°)17.3 mph24.2 mphClear
6:49 AM51.8 °F42.8 °F71 %29.72 in10.0 miWSW (240°)13.8 mph26.5 mphMostly Cloudy
6:56 AM52.0 °F43.0 °F71 %29.73 in10.0 miWSW (250°)17.3 mph24.2 mphMostly Cloudy
7:56 AM50.0 °F36.0 °F59 %29.79 in10.0 miWSW (250°)15.0 mph29.9 mphScattered Clouds
8:56 AM50.0 °F34.0 °F54 %29.83 in10.0 miWSW (250°)24.2 mph32.2 mphScattered Clouds
9:56 AM51.1 °F34.0 °F52 %29.86 in10.0 miWest (260°)18.4 mph26.5 mphPartly Cloudy
10:56 AM53.1 °F32.0 °F45 %29.88 in10.0 miWest (260°)19.6 mph29.9 mphScattered Clouds
11:56 AM54.0 °F30.9 °F41 %29.88 in10.0 miWest (280°)26.5 mph32.2 mphPartly Cloudy
12:56 PM55.0 °F30.0 °F38 %29.87 in10.0 miWest (260°)13.8 mph23.0 mphPartly Cloudy
1:56 PM55.9 °F25.0 °F30 %29.86 in10.0 miWNW (290°)17.3 mph24.2 mphClear
2:56 PM55.0 °F23.0 °F29 %29.88 in10.0 miWSW (250°)17.3 mph27.6 mphClear
3:56 PM55.0 °F21.9 °F28 %29.89 in10.0 miWest (260°)19.6 mph25.3 mphClear
4:56 PM53.1 °F19.9 °F27 %29.93 in10.0 miWest (260°)17.3 mph26.5 mphClear
5:56 PM50.0 °F21.9 °F33 %29.97 in10.0 miWest (270°)10.4 mph17.3 mphClear
6:56 PM48.0 °F23.0 °F37 %30.01 in10.0 miWest (270°)9.2 mphClear
7:56 PM45.0 °F24.1 °F44 %30.04 in10.0 miWSW (250°)6.9 mphClear
8:56 PM44.1 °F24.1 °F45 %30.05 in10.0 miWest (260°)6.9 mphClear
9:56 PM42.1 °F25.0 °F51 %30.07 in10.0 miWSW (250°)5.8 mphClear
10:56 PM39.9 °F25.0 °F55 %30.09 in10.0 miWSW (250°)4.6 mphClear
11:56 PM41.0 °F24.1 °F51 %30.08 in10.0 miSW (230°)6.9 mphClear
Hourly data recorded from KNCA, located miles away from Hoffman Forest, North Carolina







STORIES FROM OUR PARTNERS